www.pogodaiklimat.ru

ПОГОДА в Spence bay

  • Прогноз погоды в Spence bay
  • Монитор погоды в Spence bay
  • Климат города

АРХИВ ПОГОДЫ в Spence bay

Время (UTC), дата Ветер
(напр.,м/с)
 
Видим.   Явления Облачность Т
(С)
Тd
(С)
f
(%)
Тe
(С)
Тes
(С)
Комфортность P
(гПа)
Po
(гПа)
Тmin
(С)
Tmax
(С)
R
(мм)
S
(см)
15 8.01 ЮВ 2 20 км ясно -39.1 -43.5 63 -47 -47 опасность
обморожения
1014.5 1010.6
18 8.01 С 1 16 км ледяные иглы {снег} 3/3 1000 м
[Cu hum As trans]
-40.3 -44.8 62 -46 -46 опасность
обморожения
1014.7 1010.7 -40.3 -36.6 0.0 14
21 8.01 С 1 12 км 4/4 1000 м
[]
-40.0 -44.6 61 -42 -42 опасность
обморожения
1015.2 1011.3
00 9.01 С 2 16 км ледяные иглы {снег} 4/4 300 м
[Cu hum As trans Ci fib]
-39.1 -43.5 63 -47 -47 опасность
обморожения
1015.1 1011.2 -40.5 -38.3 0.0 14
03 9.01 С 2 16 км 4/4 300 м
[]
-39.3 -43.7 63 -48 -48 опасность
обморожения
1014.6 1010.6
06 9.01 С 3 24 км ледяные иглы {снег} 5/4 1000 м
[Sc Ac trans]
-38.2 -42.7 62 -50 -50 опасность
обморожения
1014.1 1010.2 -40.5 -36.6 0.0 14
09 9.01 С 4 24 км 5/5 1000 м
[]
-36.8 -41.2 63 -49 -49 опасность
обморожения
1013.6 1009.7
12 9.01 С 3 24 км ледяные иглы {снег} 5/4 1000 м
[Sc As trans]
-35.0 -39.3 65 -45 -45 опасность
обморожения
1013.1 1009.2 -39.4 -36.6 0.0 14
15 9.01 С 1 24 км 4/4 1000 м
[]
-33.6 -37.8 66 -35 -35 опасность
обморожения
1012.8 1008.9
18 9.01 ЮЗ 1 24 км ледяные иглы {снег} 4/4 1000 м
[Cu hum Ci sp]
-33.6 -37.8 66 -38 -38 опасность
обморожения
1011.4 1007.5 -40.5 -32.9 0.0 14
21 9.01 ЮВ 3 24 км 3/3 1000 м
[]
-34.9 -39.0 66 -46 -46 опасность
обморожения
1011.1 1007.2
00 10.01 ЮВ 2 24 км ледяные иглы {снег} ясно -35.3 -39.6 65 -44 -44 опасность
обморожения
1010.5 1006.6 -32.9 14
03 10.01 ЮВ 3 24 км 5/5 1000 м
[]
-36.5 -40.9 64 -47 -47 опасность
обморожения
1009.5 1005.6
06 10.01 ЮВ 4 24 км ледяные иглы {снег} 6/1 1000 м
[Sc Cs]
-36.4 -40.8 64 -49 -49 опасность
обморожения
1008.8 1004.9 -38.2 -32.9 0.0 14
09 10.01 ЮВ 3 24 км 1/0
[]
-37.6 -41.9 64 -49 -49 опасность
обморожения
1008.2 1004.3
12 10.01 ЮВ 4 24 км ледяные иглы {снег} 3/0
[Ci fib]
-38.1 -42.6 62 -51 -51 опасность
обморожения
1007.6 1003.7 -38.1 -32.9 0.0 14
15 10.01 Ю 3 24 км 1/0
[]
-38.6 -43.1 62 -50 -50 опасность
обморожения
1007.6 1003.7
18 10.01 Ю 4 24 км ледяные иглы {снег} 5/5 1000 м
[Cu hum Ci ing]
-38.4 -42.9 62 -51 -51 опасность
обморожения
1007.7 1003.8 -39.1 -36.4 0.0 14
21 10.01 Ю 3 16 км 6/6 1000 м
[]
-38.1 -42.6 62 -48 -48 опасность
обморожения
1008.4 1004.5
00 11.01 ЮВ 1 19 км ледяные иглы {снег} 3/3 600 м
[Cu med, cong Ci fib]
-37.8 -42.3 63 -43 -43 опасность
обморожения
1009.4 1005.5 -39.1 -37.5 0.0 14
03 11.01 штиль 0 24 км 3/3 600 м
[]
-38.9 -43.3 63 -39 -39 опасность
обморожения
1011.3 1007.4
06 11.01 С 1 24 км ледяные иглы {снег} 4/1 1000 м
[Sc Ac trans Cs]
-39.1 -43.5 63 -44 -44 опасность
обморожения
1013.5 1009.5 -39.8 -36.4 0.0 14
09 11.01 СВ 3 24 км ясно -39.9 -44.5 61 -51 -51 опасность
обморожения
1015.6 1011.6
12 11.01 С 4 24 км ледяные иглы {снег} 1/0
[Ci fib]
-40.3 -44.8 62 -53 -53 опасность
обморожения
1017.5 1013.5 -40.8 -36.4 0.0 14
15 11.01 С 3 24 км ясно -40.1 -44.7 61 -52 -52 опасность
обморожения
1019.4 1015.4
18 11.01 С 4 24 км ледяные иглы {снег} ясно -39.7 -44.3 61 -52 -52 опасность
обморожения
1020.5 1016.5 -41.4 -38.1 0.0 14
21 11.01 СВ 3 24 км ясно -40.6 -45.1 62 -51 -51 опасность
обморожения
1021.5 1017.5
00 12.01 С 5 24 км ледяные иглы {снег} ясно -39.1 -43.5 63 -53 -53 опасность
обморожения
1022.2 1018.2 -41.4 -37.5 0.0 14
03 12.01 СВ 6 24 км ясно -36.0 -40.4 64 -51 -51 опасность
обморожения
1022.1 1018.1
06 12.01 С 4 24 км ледяные иглы {снег} ясно -37.5 -41.8 64 -51 -51 опасность
обморожения
1021.9 1017.9 -41.4 -35.0 0.0 14
09 12.01 С 5 24 км ясно -39.3 -43.7 63 -54 -54 опасность
обморожения
1020.8 1016.8
12 12.01 С 3 24 км ледяные иглы {снег} ясно -38.7 -43.2 62 -49 -49 опасность
обморожения
1019.8 1015.8 -40.1 -35.0 0.0 14
15 12.01 С 3 24 км ясно -38.1 -42.6 62 -48 -48 опасность
обморожения
1018.6 1014.6
18 12.01 С 1 24 км ледяные иглы {снег} 4/1 600 м
[Sc Ac trans Ci fib]
-38.1 -42.6 62 -43 -43 опасность
обморожения
1016.6 1012.6 -40.8 -36.6 0.0 14
21 12.01 Ю 3 24 км 3/3 600 м
[]
-39.2 -43.6 63 -50 -50 опасность
обморожения
1015.4 1011.4
00 13.01 0 24 км ледяные иглы {снег} ясно -38.4 -42.9 62 1014.1 1010.1 -40.1 -36.6 0.0 14
06 14.01 Ю 5 24 км ледяные иглы {снег} ясно -38.4 -42.9 62 -53 -53 опасность
обморожения
1011.7 1007.8 0.0 14
09 14.01 Ю 5 24 км ясно -38.5 -43.0 62 -53 -53 опасность
обморожения
1011.9 1008.0
12 14.01 Ю 5 24 км ледяные иглы {снег} ясно -38.7 -43.2 62 -53 -53 опасность
обморожения
1011.5 1007.6 0.0 14
15 14.01 ЮВ 5 24 км ясно -38.8 -43.2 63 -53 -53 опасность
обморожения
1010.8 1006.9
18 14.01 Ю 5 24 км ледяные иглы {снег} ясно -38.5 -43.0 62 -53 -53 опасность
обморожения
1009.8 1005.9 -38.1 0.0 14
21 14.01 Ю 4 24 км ясно -38.8 -43.2 63 -51 -51 опасность
обморожения
1009.9 1006.0
00 15.01 ЮВ 5 24 км ледяные иглы {снег} ясно -38.9 -43.3 63 -53 -53 опасность
обморожения
1010.0 1006.1 -39.0 -38.2 0.0 14
03 15.01 Ю 4 24 км ясно -39.1 -43.7 61 -53 -53 опасность
обморожения
1009.2 1005.3
06 15.01 ЮВ 4 24 км ледяные иглы {снег} ясно -39.7 -44.3 61 -52 -52 опасность
обморожения
1008.8 1004.9 -39.7 -38.1 0.0 14
09 15.01 ЮВ 3 24 км 1/1 1000 м
[]
-40.4 -44.9 62 -52 -52 опасность
обморожения
1008.9 1005.0
12 15.01 ЮВ 2 24 км ледяные иглы {снег} 1/1 1000 м
[Cu hum]
-40.4 -44.9 62 -48 -48 опасность
обморожения
1008.4 1004.5 -40.9 -38.1 0.0 14
15 15.01 Ю 3 24 км ясно -39.7 -44.3 61 -51 -51 опасность
обморожения
1008.3 1004.4
18 15.01 Ю 4 24 км ледяные иглы {снег} ясно -40.0 -44.6 61 -54 -54 опасность
обморожения
1008.8 1004.9 -41.4 -39.2 0.0 14
21 15.01 ЮВ 4 24 км ясно -40.1 -44.7 61 -54 -54 опасность
обморожения
1009.9 1006.0
00 16.01 Ю 4 24 км ледяные иглы {снег} ясно -40.1 -44.7 61 -54 -54 опасность
обморожения
1011.4 1007.4 -41.4 -39.5 0.0 14
03 16.01 ЮВ 5 24 км ясно -39.1 -43.7 61 -53 -53 опасность
обморожения
1012.1 1008.1
06 16.01 ЮВ 5 19 км ледяные иглы {снег} 1/1 1000 м
[Cu hum]
-39.3 -43.9 61 -54 -54 опасность
обморожения
1013.0 1009.1 -41.4 -38.8 0.0 14
09 16.01 ЮВ 5 24 км 1/1 1000 м
[]
-40.1 -44.7 61 -55 -55 опасность
обморожения
1012.9 1008.9
12 16.01 Ю 5 24 км ледяные иглы {снег} 3/3 1000 м
[Cu med, cong]
-39.7 -44.3 61 -55 -55 опасность
обморожения
1011.0 1007.1 -40.8 -38.8 0.0 14
15 16.01 Ю 5 9000 м 9/9 300 м
[]
-35.4 -39.8 64 -49 -49 опасность
обморожения
1007.8 1003.9

 

Местоположение метеостанции Spence bay (Канада): широта 69.55 долгота -93.58 высота над уровнем моря 28 м.

В архиве по умолчанию представлена погода в Spence bay за последнюю неделю. Архивные данные за месяц целиком и за предыдущие месяцы, начиная с января 2011 года, Вы можете получить, выбрав интересующий диапазон дат из раскрывающегося списка и нажав кнопку "Ввод!".

Внимание! Время в таблицах - всемирное. Для получения местного времени необходимо прибавить поправку, которая в Spence bay равна -6 ч.

Ветер - указаны скорость ветра в м/с - средняя за 10 мин, порывы в срок и между сроками (в фигурных скобках) и направление, откуда дует ветер: С - северный, СВ - северо-восточный, В - восточный, ЮВ - юго-восточный, Ю - южный, ЮЗ - юго-западный, З - западный, СЗ - северо-западный.
Видимость - горизонтальная дальность видимости в метрах или километрах. При видимости от 1 до 10 км при отсутствии осадков обычно наблюдается дымка, при ухудшении видимости до 1 км и менее - туман. В сухую погоду видимость может ухудшаться дымом, пылью или мглою.
Явления - указаны атмосферные явления, наблюдавшиеся в срок или в последний час перед сроком; фигурными скобками обозначены явления, наблюдавшиеся между сроками (за 1-3 часа до срока); квадратными скобками обозначены град или гололедные отложения с указанием их диаметра в мм.
Облачность - указаны через наклонную черту общая и нижняя облачность в баллах и высота нижней границы облаков в метрах; квадратными скобками обозначены формы облаков: Ci - перистые, Cs - перисто-слоистые, Cc - перисто-кучевые, Ac - высококучевые, As - высокослоистые, Sc - слоисто-кучевые, Ns - слоисто-дождевые, Cu - кучевые, Cb - кучево-дождевые. Подробнее классификацию облаков см. в Атласе облаков (PDF).
T - Температура воздуха - температура, измеренная на высоте 2 м над землей.
Td - Температура точки росы - температура, при понижении до которой содержащийся в воздухе водяной пар достигнет насыщения.
f - Относительная влажность воздуха - влажноcть воздуха, измеренная на высоте 2 м над землей.
Te - Эффективная температура - температура, которую ощущает одетый по сезону человек в тени. Характеристика душности погоды. При расчете учитывается влияние влажности воздуха и скорости ветра на теплоощущения человека.
Tes - Эффективная температура на солнце - температура, которую ощущает человек, с поправкой на солнечный нагрев. Характеристика знойности погоды. Зависит от высоты солнца над горизонтом, облачности и скорости ветра. Ночью, в пасмурную погоду, а также при ветре 12 м/с и более поправка равна нулю.
P - Атмосферное давление - приведенное к уровню моря атмосферное давление.
Po - Атмосферное давление - измеренное на уровне метеостанции атмосферное давление.
Tmin - Минимальная температура - минимум температуры воздуха на высоте 2 м над землей.
Tmax - Максимальная температура - максимум температуры воздуха на высоте 2 м над землей.
R - Количество осадков - Количество выпавших осадков, мм. При наведении курсора мыши на число - период времени, за который выпало указанное количество осадков.
S - Снежный покров - Высота снежного покрова, см. При наведении курсора мыши на число - состояние снежного покрова и степень покрытия местности в баллах.